• In Hungary
  • List of Countries
  • For 7 days
  • Water Temperature
  • Satellite Maps
  • Weather Map
  • News
  • Weather Widgets
  • user-avatar
    Login

    Hourly Weather Krizhopol

    Today, 14 November, Wednesday

    Time Temperature Precipitation Wind Pressure Humidity
    00:00 -4°C° 0 mm 4 mps 747 mmHg 61%
    01:00 -4°C° 0 mm 4 mps 747 mmHg 61%
    02:00 -4°C° 0 mm 3 mps 746 mmHg 61%
    03:00 -4°C° 0 mm 4 mps 746 mmHg 60%
    04:00 -4°C° 0 mm 4 mps 745 mmHg 60%
    05:00 -4°C° 0 mm 4 mps 745 mmHg 59%
    06:00 -4°C° 0.2 mm 4 mps 745 mmHg 63%
    07:00 -4°C° 0.2 mm 4 mps 744 mmHg 68%
    08:00 -4°C° 0 mm 4 mps 744 mmHg 74%
    09:00 -4°C° 0.6 mm 3 mps 744 mmHg 78%
    10:00 -4°C° 0.6 mm 3 mps 744 mmHg 82%
    11:00 -4°C° 0.6 mm 3 mps 744 mmHg 86%
    12:00 -2°C° 0.4 mm 3 mps 744 mmHg 87%
    13:00 -2°C° 0.4 mm 3 mps 743 mmHg 88%
    14:00 -1°C° 0.4 mm 3 mps 743 mmHg 89%
    15:00 -1°C° 0.1 mm 3 mps 743 mmHg 89%
    16:00 -1°C° 0.1 mm 2 mps 743 mmHg 90%
    17:00 +1°C° 0.1 mm 2 mps 743 mmHg 90%
    18:00 +1°C° 0 mm 2 mps 742 mmHg 91%
    19:00 +1°C° 0 mm 2 mps 742 mmHg 92%
    20:00 +2°C° 0 mm 2 mps 742 mmHg 92%
    21:00 +2°C° 0 mm 2 mps 742 mmHg 93%
    22:00 +2°C° 0 mm 2 mps 742 mmHg 93%
    23:00 +2°C° 0 mm 2 mps 742 mmHg 93%

    Tomorrow, 15 November, Thursday

    Time Temperature Precipitation Wind Pressure Humidity
    00:00 +3°C° 0.4 mm 2 mps 741 mmHg 94%
    01:00 +3°C° 0.4 mm 2 mps 741 mmHg 95%
    02:00 +3°C° 0.4 mm 2 mps 741 mmHg 96%
    03:00 +3°C° 0.5 mm 2 mps 741 mmHg 96%
    04:00 +2°C° 0.5 mm 3 mps 741 mmHg 96%
    05:00 +2°C° 0.5 mm 3 mps 741 mmHg 96%
    06:00 +3°C° 0.1 mm 2 mps 741 mmHg 95%
    07:00 +3°C° 0.1 mm 2 mps 741 mmHg 95%
    08:00 +3°C° 0.1 mm 2 mps 742 mmHg 95%
    09:00 +3°C° 0 mm 2 mps 742 mmHg 92%
    10:00 +4°C° 0 mm 2 mps 742 mmHg 89%
    11:00 +3°C° 0 mm 3 mps 743 mmHg 86%
    12:00 +3°C° 0 mm 3 mps 743 mmHg 85%
    13:00 +3°C° 0 mm 3 mps 743 mmHg 84%
    14:00 +3°C° 0 mm 3 mps 743 mmHg 82%
    15:00 +3°C° 0 mm 3 mps 744 mmHg 83%
    16:00 +3°C° 0 mm 4 mps 744 mmHg 84%
    17:00 +1°C° 0 mm 4 mps 744 mmHg 85%
    18:00 +1°C° 0 mm 4 mps 745 mmHg 85%
    19:00 +1°C° 0 mm 4 mps 745 mmHg 84%
    20:00 +1°C° 0 mm 5 mps 746 mmHg 84%
    21:00 0°C° 0 mm 5 mps 746 mmHg 83%
    22:00 0°C° 0 mm 4 mps 746 mmHg 82%
    23:00 0°C° 0 mm 4 mps 747 mmHg 82%

    Day after tomorrow, 16 November, Friday

    Time Temperature Precipitation Wind Pressure Humidity
    00:00 -1°C° 0 mm 4 mps 747 mmHg 82%
    01:00 -1°C° 0 mm 4 mps 747 mmHg 83%
    02:00 -2°C° 0 mm 4 mps 747 mmHg 83%
    03:00 -2°C° 0 mm 5 mps 748 mmHg 82%
    04:00 -2°C° 0 mm 5 mps 748 mmHg 81%
    05:00 -2°C° 0 mm 5 mps 748 mmHg 80%
    06:00 -4°C° 0 mm 5 mps 748 mmHg 78%
    07:00 -4°C° 0 mm 5 mps 748 mmHg 76%
    08:00 -4°C° 0 mm 5 mps 749 mmHg 74%
    09:00 -2°C° 0 mm 5 mps 749 mmHg 71%
    10:00 -2°C° 0 mm 5 mps 749 mmHg 67%
    11:00 -2°C° 0 mm 6 mps 749 mmHg 63%
    12:00 -2°C° 0 mm 6 mps 749 mmHg 62%
    13:00 -1°C° 0 mm 6 mps 749 mmHg 61%
    14:00 -1°C° 0 mm 6 mps 749 mmHg 60%
    15:00 -1°C° 0 mm 6 mps 749 mmHg 62%
    16:00 -2°C° 0 mm 6 mps 749 mmHg 65%
    17:00 -2°C° 0 mm 6 mps 749 mmHg 67%
    18:00 -3°C° 0 mm 6 mps 750 mmHg 67%
    19:00 -3°C° 0 mm 6 mps 750 mmHg 66%
    20:00 -3°C° 0 mm 6 mps 750 mmHg 66%
    21:00 -2°C° 0 mm 5 mps 750 mmHg 64%
    22:00 -4°C° 0 mm 5 mps 750 mmHg 62%
    23:00 -4°C° 0 mm 5 mps 750 mmHg 60%

    17 November, Saturday

    Time Temperature Precipitation Wind Pressure Humidity
    00:00 -4°C° 0 mm 5 mps 750 mmHg 59%
    01:00 -3°C° 0 mm 4 mps 750 mmHg 58%
    02:00 -3°C° 0 mm 4 mps 750 mmHg 57%
    03:00 -4°C° 0 mm 4 mps 750 mmHg 56%
    04:00 -4°C° 0 mm 4 mps 750 mmHg 55%
    05:00 -4°C° 0 mm 4 mps 750 mmHg 54%
    06:00 -4°C° 0 mm 4 mps 751 mmHg 53%
    07:00 -4°C° 0 mm 4 mps 751 mmHg 53%
    08:00 -4°C° 0 mm 4 mps 751 mmHg 52%
    09:00 -3°C° 0 mm 4 mps 751 mmHg 49%
    10:00 -2°C° 0 mm 4 mps 751 mmHg 46%
    11:00 -1°C° 0 mm 4 mps 751 mmHg 43%
    12:00 -1°C° 0 mm 4 mps 751 mmHg 43%
    13:00 0°C° 0 mm 4 mps 751 mmHg 43%
    14:00 0°C° 0 mm 4 mps 750 mmHg 42%
    15:00 -1°C° 0 mm 4 mps 750 mmHg 46%
    16:00 -1°C° 0 mm 4 mps 750 mmHg 50%
    17:00 -2°C° 0 mm 4 mps 750 mmHg 53%
    18:00 -3°C° 0 mm 4 mps 750 mmHg 55%
    19:00 -3°C° 0 mm 4 mps 750 mmHg 56%
    20:00 -4°C° 0 mm 4 mps 750 mmHg 57%
    21:00 -4°C° 0 mm 4 mps 750 mmHg 57%
    22:00 -4°C° 0 mm 3 mps 750 mmHg 57%
    23:00 -4°C° 0 mm 3 mps 750 mmHg 58%

    18 November, Sunday

    Time Temperature Precipitation Wind Pressure Humidity
    00:00 -4°C° 0 mm 3 mps 750 mmHg 57%
    01:00 -4°C° 0 mm 3 mps 749 mmHg 57%
    02:00 -5°C° 0 mm 3 mps 749 mmHg 57%
    03:00 -5°C° 0 mm 3 mps 749 mmHg 57%
    04:00 -4°C° 0 mm 2 mps 748 mmHg 56%
    05:00 -4°C° 0 mm 2 mps 748 mmHg 56%
    06:00 -4°C° 0 mm 2 mps 748 mmHg 55%
    07:00 -4°C° 0 mm 2 mps 748 mmHg 53%
    08:00 -4°C° 0 mm 2 mps 748 mmHg 51%
    09:00 -4°C° 0 mm 3 mps 747 mmHg 46%
    10:00 -1°C° 0 mm 3 mps 747 mmHg 40%
    11:00 0°C° 0 mm 3 mps 746 mmHg 34%
    12:00 +1°C° 0 mm 3 mps 746 mmHg 33%
    13:00 +2°C° 0 mm 3 mps 745 mmHg 33%
    14:00 +1°C° 0 mm 4 mps 744 mmHg 32%
    15:00 +1°C° 0 mm 3 mps 743 mmHg 36%
    16:00 0°C° 0 mm 3 mps 743 mmHg 39%
    17:00 -1°C° 0 mm 3 mps 742 mmHg 43%
    18:00 -1°C° 0.1 mm 3 mps 741 mmHg 48%
    19:00 -1°C° 0.1 mm 3 mps 741 mmHg 53%
    20:00 -1°C° 0.1 mm 3 mps 740 mmHg 57%
    21:00 -2°C° 0.3 mm 4 mps 740 mmHg 65%
    22:00 -2°C° 0.3 mm 4 mps 739 mmHg 74%
    23:00 -3°C° 0.3 mm 4 mps 739 mmHg 82%

    19 November, Monday

    Time Temperature Precipitation Wind Pressure Humidity
    00:00 -3°C° 0.2 mm 4 mps 738 mmHg 84%
    01:00 -3°C° 0.2 mm 4 mps 738 mmHg 87%
    02:00 -3°C° 0.2 mm 4 mps 738 mmHg 90%
    03:00 -2°C° 0 mm 3 mps 738 mmHg 90%
    04:00 -1°C° 0 mm 3 mps 737 mmHg 91%
    05:00 -1°C° 0 mm 3 mps 737 mmHg 91%
    06:00 -1°C° 0 mm 3 mps 737 mmHg 91%
    07:00 -1°C° 0 mm 3 mps 737 mmHg 91%
    08:00 -1°C° 0 mm 2 mps 737 mmHg 90%
    09:00 -1°C° 0.1 mm 3 mps 737 mmHg 88%
    10:00 0°C° 0.1 mm 3 mps 737 mmHg 86%
    11:00 0°C° 0.1 mm 3 mps 738 mmHg 84%
    12:00 +1°C° 0 mm 3 mps 737 mmHg 82%
    13:00 +1°C° 0 mm 3 mps 737 mmHg 81%
    14:00 +1°C° 0 mm 3 mps 737 mmHg 79%
    15:00 +2°C° 0 mm 2 mps 737 mmHg 81%
    16:00 +1°C° 0 mm 2 mps 737 mmHg 83%
    17:00 +1°C° 0 mm 2 mps 737 mmHg 86%
    18:00 +1°C° 0 mm 2 mps 738 mmHg 87%
    19:00 +1°C° 0 mm 2 mps 738 mmHg 89%
    20:00 +1°C° 0 mm 1 mps 738 mmHg 90%
    21:00 +1°C° 0 mm 1 mps 738 mmHg 91%
    22:00 +1°C° 0 mm 1 mps 738 mmHg 92%
    23:00 +1°C° 0 mm 1 mps 738 mmHg 92%
    Show more